LPE2121 SPZO-SPJC

Flight info

Callsign LPE2121
Flight time 1h 0m
Altitude 38000
Route GAXUN UT321 UDENI UT332 PEROV
Aircraft A319/M-SDE3FGHIRWY/LB1

Departure

Time 2026-04-28 19:42
Airport Alejandro Velasco Astete International Airport (SPZO)

Arrival

Time 2026-04-28 20:43
Airport Jorge Chávez International Airport (SPJC)
Time Latitude Longitude Altitude Speed Heading
2026-04-28 19:28 -13.53724 -71.94319 10817 ft 0 kts 258°
2026-04-28 19:35 -13.53720 -71.94295 10817 ft 4 kts 277°
2026-04-28 19:36 -13.53729 -71.94273 10817 ft 4 kts 331°
2026-04-28 19:36 -13.53743 -71.94269 10814 ft 1 kts
2026-04-28 19:36 -13.53745 -71.94269 10814 ft 0 kts
2026-04-28 19:37 -13.53739 -71.94269 10814 ft 2 kts
2026-04-28 19:37 -13.53711 -71.94268 10816 ft 12 kts
2026-04-28 19:37 -13.53661 -71.94357 10817 ft 18 kts 276°
2026-04-28 19:37 -13.53642 -71.94528 10817 ft 18 kts 277°
2026-04-28 19:38 -13.53628 -71.94667 10825 ft 24 kts 275°
2026-04-28 19:38 -13.53612 -71.94829 10833 ft 23 kts 276°
2026-04-28 19:38 -13.53598 -71.94979 10854 ft 20 kts 275°
2026-04-28 19:38 -13.53587 -71.95100 10857 ft 20 kts 275°
2026-04-28 19:39 -13.53572 -71.95244 10868 ft 19 kts 277°
2026-04-28 19:39 -13.53560 -71.95360 10863 ft 11 kts 276°
2026-04-28 19:39 -13.53535 -71.95432 10865 ft 12 kts 332°
2026-04-28 19:39 -13.53502 -71.95430 10865 ft 6 kts 11°
2026-04-28 19:40 -13.53435 -71.95418 10865 ft 7 kts 28°
2026-04-28 19:40 -13.53421 -71.95383 10865 ft 3 kts 90°
2026-04-28 19:40 -13.53421 -71.95381 10865 ft 0 kts 94°
2026-04-28 19:41 -13.53422 -71.95365 10865 ft 14 kts 95°
2026-04-28 19:41 -13.53459 -71.94998 10855 ft 88 kts 96°
2026-04-28 19:41 -13.53546 -71.94138 10813 ft 150 kts 96°
2026-04-28 19:42 -13.53673 -71.92883 10817 ft 195 kts 93°
2026-04-28 19:42 -13.53818 -71.91524 11567 ft 190 kts 94°
2026-04-28 19:42 -13.53957 -71.90168 12012 ft 193 kts 94°
2026-04-28 19:42 -13.54106 -71.89247 12095 ft 202 kts 104°
2026-04-28 19:43 -13.54827 -71.87358 12294 ft 222 kts 114°
2026-04-28 19:43 -13.55488 -71.85859 12466 ft 239 kts 109°
2026-04-28 19:43 -13.56058 -71.84190 12621 ft 256 kts 107°
2026-04-28 19:43 -13.56868 -71.82486 12708 ft 279 kts 126°
2026-04-28 19:44 -13.58133 -71.80902 12988 ft 292 kts 129°
2026-04-28 19:44 -13.59441 -71.79283 13410 ft 296 kts 127°
2026-04-28 19:44 -13.60381 -71.77416 13679 ft 297 kts 101°
2026-04-28 19:44 -13.60388 -71.75319 13936 ft 295 kts 73°
2026-04-28 19:45 -13.59482 -71.73481 14486 ft 283 kts 47°
2026-04-28 19:45 -13.58006 -71.72295 15406 ft 259 kts 23°
2026-04-28 19:45 -13.56312 -71.71814 16103 ft 251 kts
2026-04-28 19:45 -13.54604 -71.72052 16598 ft 249 kts 339°
2026-04-28 19:46 -13.53120 -71.72964 17057 ft 251 kts 315°
2026-04-28 19:46 -13.52005 -71.74343 17544 ft 253 kts 306°
2026-04-28 19:46 -13.50902 -71.75817 17788 ft 269 kts 306°
2026-04-28 19:46 -13.49717 -71.77385 17938 ft 287 kts 306°
2026-04-28 19:47 -13.48455 -71.79049 18086 ft 303 kts 307°
2026-04-28 19:47 -13.47141 -71.80780 18425 ft 310 kts 307°
2026-04-28 19:47 -13.45815 -71.82544 18833 ft 314 kts 304°
2026-04-28 19:47 -13.44862 -71.84598 19002 ft 326 kts 287°
2026-04-28 19:48 -13.44089 -71.86855 19120 ft 344 kts 289°
2026-04-28 19:48 -13.43229 -71.89211 19243 ft 361 kts 289°
2026-04-28 19:48 -13.42307 -71.91663 19365 ft 374 kts 290°
2026-04-28 19:48 -13.41353 -71.94175 19666 ft 380 kts 290°
2026-04-28 19:49 -13.40395 -71.96703 20082 ft 383 kts 290°
2026-04-28 19:49 -13.39431 -71.99270 20507 ft 386 kts 289°
2026-04-28 19:49 -13.38474 -72.01852 20954 ft 388 kts 290°
2026-04-28 19:49 -13.37517 -72.04453 21394 ft 390 kts 290°
2026-04-28 19:50 -13.35585 -72.09703 22047 ft 395 kts 289°
2026-04-28 19:50 -13.34608 -72.12349 22471 ft 398 kts 289°
2026-04-28 19:50 -13.33620 -72.15010 22896 ft 400 kts 289°
2026-04-28 19:51 -13.32622 -72.17690 23331 ft 402 kts 289°
2026-04-28 19:51 -13.31622 -72.20379 23741 ft 405 kts 289°
2026-04-28 19:51 -13.30617 -72.23088 24089 ft 407 kts 289°
2026-04-28 19:51 -13.29611 -72.25808 24457 ft 408 kts 289°
2026-04-28 19:52 -13.28605 -72.28536 24883 ft 409 kts 289°
2026-04-28 19:52 -13.27595 -72.31275 25247 ft 410 kts 290°
2026-04-28 19:52 -13.26580 -72.34017 25603 ft 412 kts 290°
2026-04-28 19:52 -13.25559 -72.36771 25957 ft 413 kts 290°
2026-04-28 19:53 -13.24547 -72.39502 26306 ft 415 kts 290°
2026-04-28 19:53 -13.23520 -72.42273 26663 ft 416 kts 290°
2026-04-28 19:53 -13.22484 -72.45051 26982 ft 418 kts 290°
2026-04-28 19:53 -13.21443 -72.47848 27309 ft 420 kts 290°
2026-04-28 19:54 -13.20387 -72.50689 27642 ft 422 kts 290°
2026-04-28 19:54 -13.19341 -72.53507 27979 ft 423 kts 290°
2026-04-28 19:54 -13.18292 -72.56335 28306 ft 425 kts 290°
2026-04-28 19:54 -13.17239 -72.59170 28659 ft 426 kts 290°
2026-04-28 19:55 -13.16180 -72.62017 28984 ft 428 kts 290°
2026-04-28 19:55 -13.15114 -72.64871 29308 ft 429 kts 290°
2026-04-28 19:55 -13.14044 -72.67736 29615 ft 431 kts 290°
2026-04-28 19:55 -13.12986 -72.70572 29922 ft 432 kts 290°
2026-04-28 19:56 -13.11911 -72.73457 30223 ft 434 kts 290°
2026-04-28 19:56 -13.10832 -72.76354 30487 ft 436 kts 290°
2026-04-28 19:56 -13.09845 -72.79298 30746 ft 437 kts 284°
2026-04-28 19:56 -13.09151 -72.82341 31000 ft 439 kts 283°
2026-04-28 19:57 -13.08456 -72.85404 31262 ft 441 kts 283°
2026-04-28 19:57 -13.07753 -72.88476 31533 ft 443 kts 283°
2026-04-28 19:57 -13.07047 -72.91561 31810 ft 445 kts 283°
2026-04-28 19:57 -13.06342 -72.94649 32198 ft 444 kts 284°
2026-04-28 19:58 -13.05641 -72.97729 32571 ft 443 kts 284°
2026-04-28 19:58 -13.04940 -73.00800 32978 ft 442 kts 284°
2026-04-28 19:58 -13.04239 -73.03866 33379 ft 441 kts 284°
2026-04-28 19:58 -13.03540 -73.06928 33792 ft 440 kts 284°
2026-04-28 19:59 -13.02843 -73.09983 34142 ft 440 kts 284°
2026-04-28 19:59 -13.02145 -73.13033 34472 ft 439 kts 285°
2026-04-28 19:59 -13.01683 -73.15047 34700 ft 438 kts 284°
2026-04-28 19:59 -13.00986 -73.18080 35064 ft 436 kts 285°
2026-04-28 20:00 -13.00292 -73.21106 35444 ft 435 kts 285°
2026-04-28 20:00 -12.99602 -73.24121 35778 ft 434 kts 285°
2026-04-28 20:00 -12.98911 -73.27128 36138 ft 433 kts 285°
2026-04-28 20:00 -12.98222 -73.30128 36520 ft 432 kts 285°
2026-04-28 20:01 -12.97537 -73.33114 36922 ft 429 kts 285°
2026-04-28 20:01 -12.96854 -73.36084 37284 ft 427 kts 286°
2026-04-28 20:01 -12.96174 -73.39048 37583 ft 426 kts 285°
2026-04-28 20:01 -12.95497 -73.42005 37819 ft 426 kts 286°
2026-04-28 20:02 -12.94818 -73.44969 37983 ft 429 kts 285°
2026-04-28 20:02 -12.93441 -73.50940 38015 ft 431 kts 285°
2026-04-28 20:03 -12.92058 -73.56922 38018 ft 431 kts 286°
2026-04-28 20:03 -12.90674 -73.62910 38018 ft 432 kts 285°
2026-04-28 20:04 -12.89300 -73.68888 38032 ft 429 kts 286°
2026-04-28 20:04 -12.87933 -73.74825 38031 ft 428 kts 286°
2026-04-28 20:05 -12.86557 -73.80758 38028 ft 428 kts 286°
2026-04-28 20:05 -12.85179 -73.86695 38034 ft 428 kts 286°
2026-04-28 20:06 -12.83802 -73.92630 38040 ft 428 kts 286°
2026-04-28 20:06 -12.82419 -73.98567 38047 ft 428 kts 286°
2026-04-28 20:07 -12.81037 -74.04500 38045 ft 428 kts 287°
2026-04-28 20:07 -12.79654 -74.10438 38028 ft 428 kts 287°
2026-04-28 20:08 -12.78275 -74.16376 38016 ft 428 kts 287°
2026-04-28 20:08 -12.76894 -74.22313 38001 ft 428 kts 287°
2026-04-28 20:09 -12.75506 -74.28249 38015 ft 429 kts 287°
2026-04-28 20:09 -12.74112 -74.34188 38013 ft 429 kts 287°
2026-04-28 20:10 -12.72729 -74.40127 38036 ft 428 kts 286°
2026-04-28 20:10 -12.71354 -74.46039 38037 ft 426 kts 286°
2026-04-28 20:11 -12.69973 -74.51930 38041 ft 425 kts 286°
2026-04-28 20:11 -12.68587 -74.57807 38041 ft 425 kts 286°
2026-04-28 20:12 -12.67210 -74.63651 38013 ft 424 kts 287°
2026-04-28 20:12 -12.65818 -74.69588 38031 ft 427 kts 287°
2026-04-28 20:13 -12.64427 -74.75507 38016 ft 428 kts 287°
2026-04-28 20:13 -12.63022 -74.81440 38042 ft 429 kts 287°
2026-04-28 20:14 -12.61620 -74.87382 38023 ft 429 kts 287°
2026-04-28 20:14 -12.60218 -74.93333 38033 ft 430 kts 287°
2026-04-28 20:15 -12.58815 -74.99283 38033 ft 430 kts 287°
2026-04-28 20:15 -12.57416 -75.05199 38034 ft 430 kts 287°
2026-04-28 20:16 -12.56002 -75.11141 38066 ft 428 kts 286°
2026-04-28 20:16 -12.54600 -75.17050 38078 ft 426 kts 286°
2026-04-28 20:17 -12.53196 -75.22936 38082 ft 425 kts 287°
2026-04-28 20:17 -12.51800 -75.28802 38079 ft 424 kts 286°
2026-04-28 20:17 -12.51119 -75.31745 37770 ft 425 kts 286°
2026-04-28 20:18 -12.50456 -75.34685 37342 ft 424 kts 285°
2026-04-28 20:18 -12.50011 -75.36673 37068 ft 423 kts 286°
2026-04-28 20:18 -12.49141 -75.40561 36547 ft 424 kts 285°
2026-04-28 20:18 -12.48483 -75.43495 36150 ft 422 kts 285°
2026-04-28 20:19 -12.47828 -75.46405 35772 ft 418 kts 285°
2026-04-28 20:19 -12.47174 -75.49294 35393 ft 415 kts 286°
2026-04-28 20:19 -12.46520 -75.52164 35038 ft 412 kts 285°
2026-04-28 20:19 -12.45873 -75.55014 34674 ft 410 kts 285°
2026-04-28 20:20 -12.45229 -75.57848 34308 ft 408 kts 285°
2026-04-28 20:20 -12.44586 -75.60666 33934 ft 406 kts 285°
2026-04-28 20:20 -12.43943 -75.63468 33524 ft 404 kts 285°
2026-04-28 20:20 -12.43302 -75.66258 33140 ft 402 kts 285°
2026-04-28 20:21 -12.42662 -75.69036 32743 ft 400 kts 285°
2026-04-28 20:21 -12.42030 -75.71802 32346 ft 399 kts 284°
2026-04-28 20:21 -12.41403 -75.74562 31961 ft 398 kts 284°
2026-04-28 20:21 -12.40777 -75.77314 31579 ft 396 kts 284°
2026-04-28 20:22 -12.40150 -75.80056 31213 ft 396 kts 284°
2026-04-28 20:22 -12.39522 -75.82802 30839 ft 396 kts 284°
2026-04-28 20:22 -12.38891 -75.85546 30477 ft 395 kts 284°
2026-04-28 20:22 -12.38265 -75.88275 30104 ft 394 kts 284°
2026-04-28 20:23 -12.37640 -75.90994 29673 ft 392 kts 283°
2026-04-28 20:23 -12.37019 -75.93702 29267 ft 390 kts 283°
2026-04-28 20:23 -12.36401 -75.96398 28849 ft 388 kts 283°
2026-04-28 20:23 -12.35782 -75.99079 28436 ft 387 kts 283°
2026-04-28 20:24 -12.35166 -76.01749 28036 ft 385 kts 283°
2026-04-28 20:24 -12.34554 -76.04411 27637 ft 384 kts 283°
2026-04-28 20:24 -12.33965 -76.07059 27246 ft 381 kts 282°
2026-04-28 20:24 -12.33397 -76.09703 26851 ft 379 kts 282°
2026-04-28 20:25 -12.32839 -76.12330 26472 ft 377 kts 282°
2026-04-28 20:25 -12.32284 -76.14946 26086 ft 375 kts 282°
2026-04-28 20:25 -12.31729 -76.17539 25715 ft 373 kts 282°
2026-04-28 20:25 -12.31173 -76.20121 25350 ft 371 kts 282°
2026-04-28 20:26 -12.30617 -76.22684 24960 ft 368 kts 282°
2026-04-28 20:26 -12.30062 -76.25228 24602 ft 366 kts 282°
2026-04-28 20:26 -12.29511 -76.27765 24249 ft 365 kts 281°
2026-04-28 20:26 -12.28969 -76.30295 23900 ft 364 kts 282°
2026-04-28 20:27 -12.28428 -76.32828 23539 ft 364 kts 281°
2026-04-28 20:27 -12.27888 -76.35351 23145 ft 362 kts 281°
2026-04-28 20:27 -12.27355 -76.37824 22695 ft 360 kts 282°
2026-04-28 20:27 -12.26815 -76.40318 22292 ft 358 kts 281°
2026-04-28 20:28 -12.26278 -76.42795 21899 ft 356 kts 281°
2026-04-28 20:28 -12.25745 -76.45257 21506 ft 354 kts 282°
2026-04-28 20:28 -12.25214 -76.47707 21118 ft 352 kts 282°
2026-04-28 20:28 -12.24686 -76.50146 20735 ft 351 kts 282°
2026-04-28 20:29 -12.24162 -76.52578 20296 ft 349 kts 282°
2026-04-28 20:29 -12.23641 -76.54995 19934 ft 348 kts 282°
2026-04-28 20:29 -12.23121 -76.57403 19565 ft 346 kts 282°
2026-04-28 20:29 -12.22602 -76.59799 19203 ft 344 kts 282°
2026-04-28 20:30 -12.22084 -76.62185 18846 ft 343 kts 282°
2026-04-28 20:30 -12.21568 -76.64561 18492 ft 341 kts 282°
2026-04-28 20:30 -12.21052 -76.66923 18081 ft 339 kts 282°
2026-04-28 20:30 -12.20538 -76.69271 17670 ft 337 kts 282°
2026-04-28 20:31 -12.20027 -76.71605 17276 ft 335 kts 282°
2026-04-28 20:31 -12.19520 -76.73927 16878 ft 333 kts 282°
2026-04-28 20:31 -12.19016 -76.76231 16487 ft 331 kts 282°
2026-04-28 20:31 -12.18515 -76.78519 16101 ft 329 kts 282°
2026-04-28 20:32 -12.18015 -76.80796 15701 ft 327 kts 282°
2026-04-28 20:32 -12.17518 -76.83057 15325 ft 325 kts 282°
2026-04-28 20:32 -12.17020 -76.85309 14953 ft 324 kts 282°
2026-04-28 20:32 -12.16527 -76.87548 14567 ft 323 kts 282°
2026-04-28 20:33 -12.16035 -76.89786 14161 ft 323 kts 282°
2026-04-28 20:33 -12.15544 -76.92021 13756 ft 323 kts 282°
2026-04-28 20:33 -12.15052 -76.94260 13295 ft 323 kts 282°
2026-04-28 20:33 -12.14563 -76.96496 12848 ft 322 kts 282°
2026-04-28 20:34 -12.14077 -76.98729 12401 ft 322 kts 282°
2026-04-28 20:34 -12.13593 -77.00955 11957 ft 321 kts 282°
2026-04-28 20:34 -12.13108 -77.03177 11528 ft 320 kts 282°
2026-04-28 20:34 -12.12622 -77.05392 11105 ft 319 kts 282°
2026-04-28 20:35 -12.12137 -77.07597 10688 ft 318 kts 282°
2026-04-28 20:35 -12.11654 -77.09796 10274 ft 317 kts 282°
2026-04-28 20:35 -12.11172 -77.11989 9866 ft 315 kts 282°
2026-04-28 20:35 -12.10695 -77.14169 9419 ft 314 kts 282°
2026-04-28 20:36 -12.10215 -77.16344 8936 ft 313 kts 283°
2026-04-28 20:36 -12.09377 -77.18380 8270 ft 311 kts 305°
2026-04-28 20:36 -12.07854 -77.19905 7622 ft 306 kts 328°
2026-04-28 20:36 -12.05974 -77.20894 6990 ft 302 kts 334°
2026-04-28 20:37 -12.04090 -77.21822 6368 ft 299 kts 334°
2026-04-28 20:37 -12.02220 -77.22739 5706 ft 296 kts 334°
2026-04-28 20:37 -12.00376 -77.23656 5104 ft 292 kts 334°
2026-04-28 20:37 -11.98575 -77.24586 4500 ft 288 kts 333°
2026-04-28 20:38 -11.96804 -77.25522 3882 ft 285 kts 333°
2026-04-28 20:38 -11.95057 -77.26456 3287 ft 282 kts 332°
2026-04-28 20:38 -11.93293 -77.27302 2665 ft 279 kts 344°
2026-04-28 20:38 -11.91391 -77.27393 2141 ft 272 kts 14°
2026-04-28 20:39 -11.89763 -77.26544 2008 ft 263 kts 44°
2026-04-28 20:39 -11.88664 -77.25060 2019 ft 263 kts 66°
2026-04-28 20:39 -11.88163 -77.23286 2020 ft 261 kts 86°
2026-04-28 20:39 -11.88315 -77.21441 2030 ft 265 kts 106°
2026-04-28 20:40 -11.89087 -77.19789 2031 ft 252 kts 128°
2026-04-28 20:40 -11.90291 -77.18577 2031 ft 238 kts 147°
2026-04-28 20:40 -11.91711 -77.17794 2000 ft 234 kts 156°
2026-04-28 20:40 -11.93171 -77.17076 1777 ft 231 kts 156°
2026-04-28 20:41 -11.94613 -77.16365 1484 ft 230 kts 156°
2026-04-28 20:41 -11.96028 -77.15667 1162 ft 221 kts 157°
2026-04-28 20:41 -11.97369 -77.15004 902 ft 205 kts 155°
2026-04-28 20:41 -11.98610 -77.14392 628 ft 192 kts 156°
2026-04-28 20:42 -11.99736 -77.13835 396 ft 169 kts 156°
2026-04-28 20:42 -12.00424 -77.13495 236 ft 156 kts 158°
2026-04-28 20:42 -12.01355 -77.13038 56 ft 143 kts 157°
2026-04-28 20:42 -12.02143 -77.12649 44 ft 111 kts 153°
2026-04-28 20:43 -12.02640 -77.12391 51 ft 39 kts 135°
2026-04-28 20:43 -12.02762 -77.12247 58 ft 14 kts 125°
2026-04-28 20:43 -12.02740 -77.12185 64 ft 10 kts 10°
2026-04-28 20:43 -12.02671 -77.12212 60 ft 13 kts 334°
2026-04-28 20:44 -12.02617 -77.12200 62 ft 7 kts 43°
2026-04-28 20:44 -12.02573 -77.12184 64 ft 10 kts 351°
2026-04-28 20:44 -12.02495 -77.12224 62 ft 15 kts 334°
2026-04-28 20:44 -12.02382 -77.12279 55 ft 21 kts 335°
2026-04-28 20:45 -12.02252 -77.12341 54 ft 17 kts 335°
2026-04-28 20:45 -12.02178 -77.12330 54 ft 13 kts 53°
2026-04-28 20:45 -12.02129 -77.12229 55 ft 17 kts 64°
2026-04-28 20:45 -12.02079 -77.12122 57 ft 16 kts 64°
2026-04-28 20:46 -12.02023 -77.12005 61 ft 21 kts 64°
2026-04-28 20:46 -12.01961 -77.11873 66 ft 15 kts 64°
2026-04-28 20:46 -12.01961 -77.11800 64 ft 11 kts 141°
2026-04-28 20:46 -12.02052 -77.11754 70 ft 18 kts 155°
2026-04-28 20:47 -12.02166 -77.11698 72 ft 19 kts 154°
2026-04-28 20:47 -12.02284 -77.11642 75 ft 18 kts 155°
2026-04-28 20:47 -12.02402 -77.11583 80 ft 20 kts 154°
2026-04-28 20:47 -12.02533 -77.11519 84 ft 21 kts 153°
2026-04-28 20:48 -12.02658 -77.11458 86 ft 14 kts 156°
2026-04-28 20:48 -12.02731 -77.11422 84 ft 6 kts 161°
2026-04-28 20:48 -12.02754 -77.11438 83 ft 6 kts 236°
2026-04-28 20:48 -12.02767 -77.11465 81 ft 1 kts 244°